User: anonymous   Login
Location: Caltech
(34.1382°N, 118.1253°W)
Time: 20:23:43
(UTC-08:00)
Language:

Cosmos 2333 Rocket - Orbit

View from above orbital plane
View from above orbital plane
View from above satellite
View from above satellite

Ground track
Ground track

The orbit data is extracted from the following two-line orbital elements,

1 24298U 96051B   15025.59687029 -.00000208  00000-0 -86549-4 0  6530
2 24298 070.8543 103.5465 0014437 033.4732 066.3409 14.12445918948478
Epoch (UTC): 25 January 2015 14:19:29
Eccentricity: 0.0014437
inclination: 70.8543°
perigee height: 840 km
apogee height: 861 km
right ascension of ascending node: 103.5465°
argument of perigee: 33.4732°
revolutions per day: 14.12445918
mean anomaly at epoch: 66.3409°
orbit number at epoch: 94847

The dashed part of the orbit path shows where the satellite is in the earth's shadow,  

DLR